FW4151 Weather Reports


time (UTC)temp
C
wind
direction
speed
KPH
gust
KPH
rain 1hr
cm
rain 24hr
cm
rain mn
cm
humidity
%
barometer
mb
20260505041544 13 0.0 0.0 0.00 0.00 0.00 61 1005.7
20260505040041 13 0.0 0.0 0.00 0.00 0.00 60 1005.8
20260505034541 13 0.0 0.0 0.00 0.00 0.00 60 1005.8
20260505033102 13 0.0 0.0 0.00 0.00 0.00 59 1005.7
20260505031542 13 0.0 0.0 0.00 0.00 0.00 59 1005.7
20260505030038 13 0.0 0.0 0.00 0.00 0.00 58 1005.9
20260505024537 13 0.0 0.0 0.00 0.00 0.00 58 1006.0
20260505023047 13 0.0 0.0 0.00 0.00 0.00 58 1006.2
20260505021537 13 0.0 0.0 0.00 0.00 0.00 57 1006.4
20260505020039 14 0.0 0.0 0.00 0.00 0.00 56 1006.3
20260505014536 14 0.0 0.0 0.00 0.00 0.00 54 1006.2
20260505013035 15 0.0 0.0 0.00 0.00 0.00 53 1006.1
20260505011535 15 0.0 0.0 0.00 0.00 0.00 53 1006.0
20260505010037 15 0.0 0.0 0.00 0.00 0.00 53 1005.9
20260505004543 15 0.0 0.0 0.00 0.00 0.00 51 1005.8
20260505003035 16 0.0 0.0 0.00 0.00 0.00 51 1005.8
20260505001533 16 0.0 0.0 0.00 0.00 0.00 49 1005.6
20260505000034 17 0.0 0.0 0.00 0.00 0.00 48 1005.5
20260504234541 17 0.0 0.0 0.00 0.00 0.00 46 1005.4
20260504233034 18 0.0 0.0 0.00 0.00 0.00 44 1005.2
20260504231541 18 0.0 0.0 0.00 0.00 0.00 41 1005.3
20260504230029 20 0.0 0.0 0.00 0.00 0.00 40 1005.1
20260504224529 20 0.0 0.0 0.00 0.00 0.00 40 1005.1
20260504223028 20 0.0 0.0 0.00 0.00 0.00 39 1005.1
20260504221527 20 0.0 0.0 0.00 0.00 0.00 38 1005.1
20260504220026 20 0.0 0.0 0.00 0.00 0.00 39 1005.1
20260504214533 20 0.0 0.0 0.00 0.00 0.00 39 1005.0
20260504213026 20 0.0 0.0 0.00 0.00 0.00 38 1005.2
20260504211521 20 0.0 0.0 0.00 0.00 0.00 39 1005.4
20260504210019 20 0.0 0.0 0.00 0.00 0.00 39 1005.5
20260504204537 20 0.0 0.0 0.00 0.00 0.00 37 1005.8
20260504203015 20 0.0 0.0 0.00 0.00 0.00 36 1005.9
20260504201513 20 0.0 0.0 0.00 0.00 0.00 39 1006.1
20260504200014 20 0.0 0.0 0.00 0.00 0.00 40 1006.4
20260504194512 20 0.0 0.0 0.00 0.00 0.00 36 1006.5
20260504193017 20 0.0 0.0 0.00 0.00 0.00 37 1006.7
20260504191508 20 0.0 0.0 0.00 0.00 0.00 38 1006.8
20260504190010 20 0.0 0.0 0.00 0.00 0.00 38 1006.7
20260504184504 20 0.0 0.0 0.00 0.00 0.00 40 1007.0
20260504183002 19 0.0 0.0 0.00 0.00 0.00 39 1007.1
20260504181559 18 0.0 0.0 0.00 0.00 0.00 41 1007.2
20260504180058 18 0.0 0.0 0.00 0.00 0.00 41 1007.3
20260504174556 18 0.0 0.0 0.00 0.00 0.00 40 1007.5
20260504173055 18 0.0 0.0 0.00 0.00 0.00 40 1007.7
20260504171555 18 0.0 0.0 0.00 0.00 0.00 40 1007.7
20260504081526 5 0.0 0.0 0.00 0.00 0.00 64 1010.7